Inquirer Daily News

Weather

Get conditions and forecasts for any City, State, ZIP code or Country:  
Northeast Philadelphia, PA
on Friday, December 7, 2012

Friday
Previous Day Next Day
Daily Summary
 ActualAverage (KTTN)Record (KTTN)
Temperature
Mean Temperature °F 38°F  
Max Temperature 44°F 46°F 76°F (1998)
Min Temperature 27°F 30°F 9°F (2002)
Degree Days
Heating Degree Days 30 27  
Month to date heating degree days 181  
Since 1 July heating degree days 1157  
Cooling Degree Days 0 0  
Month to date cooling degree days 0  
Year to date cooling degree days 965  
Moisture
Dew Point 35°F   
Average Humidity 89    
Maximum Humidity 97    
Minimum Humidity 79    
Precipitation
Precipitation 0.17 in 0.13 in 2.06 in (2011)
Month to date precipitation 0.97  
Year to date precipitation 43.71  
Wind
Wind Speed 1 mph   
Max Wind Speed 5 mph   
Max Gust Speed mph   
Visibility 7 miles   
Events Rain   

Key: T is trace of precipitation, MM is missing value
Source: NWS Daily Summary
Time(EST)TemperatureDew PointHumidity Pressure Visibility Wind DirectionWind SpeedGust SpeedPrecipitationEvents Conditions
12:54 AM 27.0°F 21.9°F 81% 30.29 in 10.0 miles Calm Calm - N/A   Clear
1:54 AM 27.0°F 21.9°F 81% 30.28 in 10.0 miles Calm Calm - N/A   Clear
2:54 AM 27.0°F 23.0°F 85% 30.27 in 10.0 miles NE 3.5 mph - N/A   Clear
3:54 AM 28.0°F 24.1°F 85% 30.25 in 10.0 miles NE 4.6 mph - N/A   Clear
4:30 AM 28.4°F 26.6°F 93% 30.23 in 10.0 miles NE 3.5 mph - N/A   Mostly Cloudy
4:54 AM 30.0°F 25.0°F 82% 30.24 in 10.0 miles NNE 3.5 mph - N/A   Mostly Cloudy
5:31 AM 30.2°F 26.6°F 86% 30.22 in 10.0 miles Calm Calm - N/A   Overcast
5:39 AM 30.2°F 26.6°F 86% 30.22 in 10.0 miles Calm Calm - N/A   Overcast
5:54 AM 32.0°F 27.0°F 82% 30.22 in 10.0 miles Calm Calm - N/A   Overcast
6:54 AM 33.1°F 28.9°F 85% 30.23 in 10.0 miles Calm Calm - N/A   Overcast
7:28 AM 33.8°F 28.4°F 81% 30.23 in 10.0 miles Calm Calm - N/A   Overcast
7:54 AM 34.0°F 28.9°F 82% 30.22 in 10.0 miles Calm Calm - N/A   Overcast
8:15 AM 35.6°F 30.2°F 81% 30.21 in 10.0 miles ENE 3.5 mph - N/A   Overcast
8:34 AM 35.6°F 30.2°F 81% 30.22 in 10.0 miles East 3.5 mph - N/A   Overcast
8:42 AM 35.6°F 30.2°F 81% 30.21 in 10.0 miles Calm Calm - N/A   Overcast
8:54 AM 37.0°F 30.9°F 79% 30.22 in 10.0 miles Calm Calm - 0.00 in Rain Light Rain
9:54 AM 37.9°F 32.0°F 79% 30.22 in 9.0 miles Calm Calm - 0.00 in Rain Light Rain
10:54 AM 37.9°F 34.0°F 86% 30.20 in 7.0 miles Calm Calm - 0.02 in Rain Light Rain
11:54 AM 39.0°F 36.0°F 89% 30.17 in 6.0 miles Calm Calm - 0.02 in Rain Light Rain
12:54 PM 39.9°F 37.9°F 93% 30.14 in 5.0 miles Calm Calm - 0.03 in Rain Light Rain
1:03 PM 39.2°F 37.4°F 93% 30.13 in 7.0 miles Calm Calm - 0.00 in   Overcast
1:18 PM 39.2°F 37.4°F 93% 30.13 in 6.0 miles Calm Calm - 0.00 in Rain Light Rain
1:54 PM 41.0°F 39.0°F 93% 30.12 in 6.0 miles Calm Calm - 0.00 in   Overcast
2:18 PM 41.0°F 39.2°F 93% 30.11 in 5.0 miles Calm Calm - N/A   Overcast
2:54 PM 42.1°F 39.9°F 92% 30.11 in 6.0 miles Calm Calm - N/A   Overcast
3:43 PM 42.8°F 39.2°F 87% 30.10 in 5.0 miles East 3.5 mph - N/A   Overcast
3:54 PM 42.1°F 39.9°F 92% 30.10 in 4.0 miles East 4.6 mph - N/A   Overcast
4:31 PM 42.8°F 39.2°F 87% 30.10 in 5.0 miles Calm Calm - N/A   Overcast
4:54 PM 42.1°F 39.9°F 92% 30.10 in 5.0 miles Calm Calm - N/A   Overcast
5:42 PM 42.8°F 41.0°F 93% 30.10 in 4.0 miles Calm Calm - N/A   Overcast
5:54 PM 42.1°F 41.0°F 96% 30.10 in 4.0 miles Calm Calm - N/A   Overcast
6:26 PM 42.8°F 41.0°F 93% 30.09 in 4.0 miles NE 3.5 mph - N/A   Overcast
6:54 PM 43.0°F 41.0°F 93% 30.09 in 4.0 miles Calm Calm - N/A   Overcast
7:10 PM 42.8°F 41.0°F 93% 30.09 in 4.0 miles Calm Calm - N/A   Overcast
7:54 PM 43.0°F 42.1°F 97% 30.09 in 4.0 miles Calm Calm - 0.00 in   Overcast
8:54 PM 44.1°F 42.1°F 93% 30.08 in 4.0 miles North 3.5 mph - N/A   Overcast
9:54 PM 43.0°F 41.0°F 93% 30.06 in 3.0 miles ENE 3.5 mph - 0.00 in Rain Light Rain
9:58 PM 42.8°F 41.0°F 93% 30.06 in 2.5 miles NE 3.5 mph - 0.01 in Rain Light Rain
10:35 PM 42.8°F 41.0°F 93% 30.05 in 3.0 miles NE 4.6 mph - 0.04 in Rain Light Rain
10:49 PM 42.8°F 41.0°F 93% 30.04 in 2.5 miles NE 4.6 mph - 0.04 in Rain Light Rain
10:54 PM 42.1°F 41.0°F 96% 30.05 in 3.0 miles NE 4.6 mph - 0.04 in Rain Light Rain
11:22 PM 42.8°F 41.0°F 93% 30.03 in 2.0 miles NE 3.5 mph - 0.02 in Rain Rain
11:54 PM 43.0°F 41.0°F 93% 30.04 in 2.0 miles NNE 3.5 mph - 0.06 in Rain Light Rain
Astronomy
Sunrise:07:09 AM (EST) Moon Rise:12:25 AM (EST)12/7
Sunset:04:34 PM (EST) Moon Set:12:30 PM (EST)12/7
Moon Phase
Dec. 07 Dec. 13 Dec. 20 Dec. 28 Jan. 04

Copyright © 2014 The Weather Underground, Inc.